Miscellaneous Local Product
Issued by NWS North Platte, NE

Home | Current Version | Previous Version | Text Only | Print | Product List | Glossary On
Versions: 1 2 3 4 5 6 7 8 9 10 11 12 13 14 15 16 17 18 19 20 21 22 23 24 25 26 27 28 29 30 31 32 33 34 35 36 37 38 39 40 41 42 43 44 45 46 47 48 49 50
000
AXUS43 KLBF 300110
MISLBF


WESTERN AND NORTH CENTRAL NEBRASKA HOURLY WEATHER ROUNDUP
NATIONAL WEATHER SERVICE NORTH PLATTE NE
800 PM CDT TUE JUL 29 2014

***STATIONS NOT REPORTING VARIABLES SUCH AS SKY/WEATHER OR
PRESSURE ARE PROVIDED BY THE NEBRASKA DEPARTMENT OF
ROADS...RAWS...AND APRS NETWORKS...AND ARE NOT UNDER
NATIONAL WEATHER SERVICE QUALITY CONTROL***

...OBSERVATIONS IN AND NEAR THE EASTERN PANHANDLE OF NEBRASKA...

CITY           SKY/WX    TMP DP  RH WIND       PRES   REMARKS
PINE RIDGE     PTSUNNY   68  55  63 E6        30.22R
CHADRON        LGT RAIN  71  54  54 NE8       30.21R
ALLIANCE       CLOUDY    71  59  65 SE10      30.21R
SIDNEY         CLOUDY    68  57  68 NE20G29   30.18F
WHITECLAY        N/A     69  54  59 CALM        N/A
RUSHVILLE        N/A     70  51  49 E14         N/A
GORDON           N/A     70  57  61 NE7         N/A
CRESCENT LAKE    N/A     65  63  93 SE8G17      N/A
LISCO            N/A     73  58  59 NE20        N/A
$$

...OBSERVATIONS IN NORTH CENTRAL NEBRASKA...

CITY           SKY/WX    TMP DP  RH WIND       PRES   REMARKS
VALENTINE      MOSUNNY   75  49  39 NE7       30.17S
THEDFORD       CLOUDY    74  57  53 NE7       30.18F
AINSWORTH      CLOUDY    73  53  49 CALM      30.17S
O`NEILL        CLOUDY    74  55  51 E10G16    30.15R
ORD            CLOUDY    72  58  61 NE5       30.14R
BROKEN BOW     MOCLDY    73  60  63 E6        30.15R
BROWNLEE         N/A     74  51  43 N7          N/A
SPRINGVIEW       N/A     76  52  42 CALM        N/A
DUNNING          N/A     74  60  60 N9          N/A
ROSE             N/A     76  62  62 CALM        N/A
NEWPORT          N/A     77  55  47 E3          N/A
SARGENT          N/A     73  59  62 E3          N/A
COMSTOCK         N/A     78  66  66 CALM        N/A
CHAMBERS         N/A     78  54  43 E3          N/A
EWING            N/A     69  60  74 CALM        N/A
$$

...OBSERVATIONS IN SOUTHWEST NEBRASKA AND FAR NORTHEAST COLORADO...

CITY           SKY/WX    TMP DP  RH WIND       PRES   REMARKS
WRAY             N/A     66  62  86 S29G38    30.12S VSB 1
HOLYOKE        FAIR      79  61  53 E16G22    30.13R
IMPERIAL       CLOUDY    78  58  49 E14       30.11S
OGALLALA       CLOUDY    72  58  62 E16       30.15F
NORTH PLATTE   LGT RAIN  70  64  81 S7        30.15S
MCCOOK         MOCLDY    78  58  49 E17G26    30.10S
LEXINGTON      MOCLDY    75  61  60 E10       30.14S
SUTHERLAND       N/A     74  69  82 E9          N/A
BRADY            N/A     75  61  62 CALM        N/A
CALLAWAY         N/A     75  64  69 E5          N/A
$$

...SOME WEATHER OBSERVATIONS FROM AROUND THE REGION...

CITY           SKY/WX    TMP DP  RH WIND       PRES   REMARKS
DENVER         CLOUDY    63  60  90 N8        30.23S
LARAMIE        HVY RAIN  55  54  96 CALM      30.35F FOG
CHEYENNE       LGT RAIN  59  57  93 SW9       30.29F FOG
SCOTTSBLUFF    LGT RAIN  70  60  70 E9        30.20R
RAPID CITY     PTSUNNY   71  53  52 SE5       30.21S
PIERRE         SUNNY     79  51  37 NE9       30.11F
WINNER         FAIR      79  48  33 E3        30.14S
SIOUX FALLS    PTCLDY    72  54  53 NW6       30.12F
OMAHA          MOCLDY    75  53  46 NE6       30.11F
GRAND ISLAND   MOCLDY    73  57  57 E8        30.15R
KANSAS CITY    MOCLDY    76  60  57 N5        30.09F
WICHITA        MOCLDY    84  61  45 E15       30.04S
HAYS           MOCLDY    84  59  42 E10G16    30.06S
LIBERAL        MOCLDY    75  63  64 SE12      30.09S
GOODLAND       CLOUDY    78  60  53 SE14      30.10S
$$



USA.gov is the U.S. government's official web portal to all federal, state and local government web resources and services.